Temp
67 66 67 66 66 66 67 68 67 68 68 68 66 69 64 63 59 56 55 57 58 65 69 64 65 69 67 64 65 64 65 61 59 61 60 57 54 51 52 51 51 51 50 50 50 48 49 50 51 53 52 53 53 52 51 52 51 52 52 52 52 52 53 53 53 56 58 59 58 56 56 56 56 56
66 67 68 67 66 67 66 67 66 67 67 66 68 66 66 65 61 59 56 56 59 60 64 66 65 67 67 67 65 65 62 62 64 65 63 59 55 52 52 51 50 50 50 49 50 49 49 50 51 52 51 51 51 51 51 51 51 51 51 50 51 52 54 53 54 55 57 57 56 56 55 55 55 56
67 66 66 66 65 66 66 66 67 67 67 68 67 65 66 65 64 63 61 55 58 62 58 62 68 66 68 70 65 66 64 65 65 62 61 62 55 53 52 51 51 50 51 49 49 51 52 51 51 51 52 51 51 52 51 51 52 51 50 49 50 52 53 53 52 54 55 55 55 55 54 54 55 55
68 66 66 65 66 66 67 67 67 66 67 67 66 67 66 65 65 64 61 58 56 60 60 62 66 68 65 68 66 64 67 66 60 63 62 61 55 56 54 50 51 51 51 50 50 52 52 51 50 51 50 48 50 50 49 51 51 50 49 48 49 50 51 51 50 51 52 52 53 53 52 53 53 53
68 68 67 66 67 67 65 66 67 68 68 67 68 68 65 65 65 64 61 58 57 60 62 62 64 65 65 66 67 66 63 62 62 63 64 61 58 59 58 54 51 51 51 49 49 50 50 49 50 49 47 47 48 49 49 49 49 48 47 47 47 49 49 48 47 47 48 49 50 51 51 51 51 52
69 66 66 67 66 68 68 65 72 71 70 71 69 68 67 65 65 67 63 60 57 55 61 61 65 63 66 63 68 62 61 61 62 65 65 67 66 67 61 57 54 50 51 50 49 50 51 50 50 49 48 48 48 48 48 47 46 47 46 46 46 48 46 45 45 45 46 48 49 50 50 50 51 52
67 66 65 64 65 68 65 65 65 68 69 72 70 67 67 65 64 66 66 62 59 58 59 61 62 61 63 60 65 67 66 65 67 65 66 68 70 71 65 63 59 51 50 50 50 50 51 50 49 48 49 48 47 47 48 47 46 46 46 45 46 45 44 43 44 45 46 48 49 49 50 50 51 54
66 65 64 64 65 65 64 64 64 65 66 66 67 67 65 64 65 64 63 64 60 61 59 61 65 64 60 62 67 71 68 64 62 65 67 69 69 69 70 68 65 55 50 50 50 50 51 50 50 49 48 48 49 48 47 47 47 46 46 46 46 44 43 43 43 44 45 47 47 49 50 50 52 55
66 65 64 65 65 65 63 63 63 65 64 69 66 65 66 65 65 64 63 63 63 61 59 59 62 63 65 67 66 67 66 65 66 67 66 66 65 64 65 68 71 55 49 50 50 49 50 50 50 49 49 49 49 48 47 47 48 47 47 47 46 45 44 43 43 43 42 43 43 45 46 48 51 53
66 65 65 65 65 66 63 63 63 64 66 66 65 66 67 67 64 62 64 62 61 61 61 60 59 61 61 60 61 66 63 61 62 62 64 64 63 61 60 62 67 69 63 55 55 52 51 50 49 50 50 49 48 48 48 48 48 48 47 47 46 45 45 44 44 43 43 43 42 43 44 47 49 51
66 67 67 65 65 66 66 64 63 62 62 63 61 63 63 67 62 62 63 63 63 61 60 60 60 59 60 60 58 64 66 64 63 58 55 55 61 59 58 58 63 63 63 62 58 57 56 55 55 53 50 49 50 50 49 49 49 48 47 45 45 45 44 44 44 44 43 44 44 43 43 45 47 49
65 67 67 66 66 65 66 64 63 63 62 61 61 62 63 63 62 61 61 60 60 60 61 60 59 61 57 58 59 65 62 59 58 61 57 54 53 55 56 57 58 59 60 58 63 61 57 56 57 54 54 54 52 51 49 49 50 49 47 46 45 45 44 44 45 44 44 44 44 44 43 43 44 46
66 67 65 62 61 63 62 56 56 54 57 62 60 61 62 61 60 61 60 61 61 60 59 57 60 59 59 58 57 57 56 56 56 56 56 53 54 54 55 57 61 62 59 58 59 61 59 58 56 58 58 60 57 53 50 51 51 49 47 46 45 46 45 45 45 45 45 45 44 43 43 43 43 43
66 65 61 60 62 57 55 53 50 48 48 51 56 56 58 62 59 58 59 58 59 59 57 57 56 56 54 56 56 56 55 56 56 55 54 52 52 53 53 54 55 59 57 55 55 58 60 58 57 58 57 59 56 55 51 51 52 50 47 46 46 46 46 45 45 45 45 44 44 44 43 43 43 42
62 60 61 60 59 58 57 52 47 48 47 45 44 43 45 51 59 59 58 58 59 58 58 57 56 54 53 55 57 55 54 55 54 52 51 52 51 50 48 47 52 57 56 53 52 54 57 58 56 57 58 57 57 58 54 52 51 50 47 47 47 46 46 45 46 45 45 44 44 43 43 43 44 43
61 60 59 59 60 61 60 59 55 50 46 45 44 44 43 42 43 47 56 56 55 55 55 55 55 55 54 53 52 52 52 50 51 51 51 50 49 49 47 47 48 53 55 52 50 50 55 56 54 54 57 58 56 60 54 49 49 48 47 47 47 46 46 46 46 45 45 44 43 43 43 43 43 43
58 59 58 58 59 62 58 60 60 58 52 44 42 42 44 43 43 43 44 48 56 57 55 55 54 53 54 53 52 52 52 52 50 50 49 49 48 48 47 47 48 52 55 52 50 49 52 54 53 52 54 56 55 56 54 52 49 47 47 47 47 47 47 46 46 45 44 44 44 44 44 43 43 43
57 56 56 57 59 59 59 59 59 59 55 52 51 53 54 54 48 43 42 45 47 53 58 57 55 55 56 53 52 53 53 52 49 48 47 48 47 46 47 49 50 53 55 51 49 47 50 53 52 50 53 55 54 54 54 51 51 49 48 47 47 47 46 46 46 46 45 44 44 44 44 44 43 43
58 58 59 59 59 59 58 59 58 58 55 54 53 53 55 55 55 57 55 54 55 56 57 56 55 53 53 53 52 51 52 51 50 50 48 47 47 49 49 50 51 52 55 53 49 45 48 50 50 50 52 54 53 54 52 52 52 52 51 49 47 46 46 46 46 46 45 44 45 44 43 43 43 43
60 60 61 61 60 60 59 54 48 53 58 56 55 55 55 55 51 46 44 42 45 50 51 51 51 49 47 46 48 47 48 49 48 49 49 48 47 47 45 45 48 49 52 54 51 47 48 51 50 49 52 53 51 52 53 52 53 50 49 48 46 46 46 46 46 45 45 44 44 44 44 44 43 43
59 61 63 62 61 60 59 52 46 46 52 58 57 56 56 56 53 50 48 42 41 41 41 40 40 39 38 40 39 40 43 45 46 47 44 44 45 43 42 44 45 45 50 52 53 49 46 48 49 48 49 49 49 51 52 51 51 50 51 48 46 46 46 46 46 46 45 45 45 44 44 44 43 43
57 54 52 58 61 59 56 44 45 46 55 58 58 57 56 55 53 52 52 52 47 40 41 39 39 41 42 42 42 42 41 41 45 45 42 45 44 44 43 41 43 45 48 48 50 46 44 48 49 47 48 47 48 49 51 51 52 51 49 50 49 48 47 46 46 45 45 45 45 45 44 44 43 44
57 56 50 51 57 55 49 43 45 47 55 58 58 58 57 55 54 52 53 52 50 49 49 47 46 45 43 44 45 45 41 42 44 45 46 46 44 42 42 43 42 41 44 47 49 44 44 44 46 46 44 42 45 48 48 49 50 50 50 51 52 49 48 49 48 46 45 45 45 44 44 43 43 43
57 53 52 46 42 42 41 41 41 42 46 54 57 59 58 55 54 54 54 53 52 51 51 50 49 48 48 46 47 47 46 44 46 45 45 46 47 45 43 45 43 42 43 45 48 43 44 44 43 46 44 40 36 43 46 47 48 48 49 49 48 48 49 49 48 49 47 45 44 44 43 43 43 45
55 54 51 48 42 41 41 41 41 42 43 47 54 53 51 48 49 52 52 49 49 52 51 51 51 50 50 48 48 48 48 46 45 46 46 47 47 47 44 43 42 41 44 46 46 45 41 43 42 43 42 42 42 41 43 45 46 46 47 48 47 49 49 49 48 49 47 48 47 47 46 46 46 46
55 54 51 48 42 40 40 41 42 43 43 44 49 45 40 39 44 52 53 51 50 50 52 49 49 50 50 51 51 50 51 48 47 47 47 48 47 46 46 43 40 39 41 46 45 45 42 41 41 40 41 40 40 42 40 42 44 45 46 47 47 47 48 47 48 47 47 47 47 46 46 46 46 46
57 52 48 44 41 40 41 41 42 42 43 44 43 39 41 41 42 45 53 50 51 51 51 50 49 48 48 50 49 49 48 49 47 47 46 47 47 46 46 46 46 44 45 46 46 45 43 41 42 41 40 41 40 41 40 40 41 45 45 46 46 46 47 47 47 47 48 47 46 46 45 45 45 45
53 50 47 43 39 40 40 40 41 41 42 42 38 38 39 43 45 49 50 49 50 48 49 49 48 49 49 48 47 47 48 46 47 48 48 46 46 45 45 46 46 46 46 45 46 45 45 42 42 43 43 42 40 38 38 42 42 43 43 46 46 47 47 47 46 46 46 46 46 45 43 43 45 46
51 43 39 38 39 39 39 39 40 40 38 38 38 38 41 45 50 50 50 51 50 48 47 47 49 48 47 48 48 47 47 47 46 46 48 48 48 48 48 47 46 44 46 46 45 47 47 45 44 45 44 44 41 41 41 40 41 42 43 42 42 45 45 46 46 46 46 47 46 46 44 41 42 44
39 39 39 39 39 41 43 48 47 45 43 38 37 37 41 49 48 50 50 47 48 48 48 47 46 47 47 47 47 47 47 46 45 46 44 43 43 44 43 43 42 44 46 47 48 48 49 48 46 45 44 44 43 42 42 41 40 42 42 42 43 44 45 46 46 47 46 45 45 45 45 45 45 45
42 42 44 44 42 42 42 43 42 41 40 42 45 45 45 47 50 48 47 46 47 45 46 46 46 46 46 48 45 44 44 44 45 45 43 43 40 43 41 41 41 42 44 46 47 48 48 48 47 46 43 43 43 43 43 43 41 41 42 43 43 38 43 46 46 45 45 45 45 45 45 45 45 45
47 45 41 43 46 47 47 47 46 45 46 46 45 47 47 48 46 45 45 47 47 47 48 47 46 43 46 45 44 45 45 44 44 45 42 42 40 41 42 40 38 41 43 45 46 47 45 47 46 46 45 44 42 43 43 42 41 41 41 43 43 44 45 44 44 44 45 45 43 43 44 44 44 45
47 47 48 45 47 46 42 42 45 45 45 44 47 51 50 50 48 47 46 45 46 46 46 44 42 41 44 43 44 43 43 43 42 43 42 41 41 42 42 40 41 41 40 41 43 44 46 46 47 47 46 45 45 44 42 39 41 42 41 42 42 42 44 44 44 43 44 43 41 41 41 43 44 44
45 43 43 42 43 42 42 42 42 42 43 42 44 42 41 44 46 45 45 46 46 42 42 43 42 41 41 39 41 43 41 40 40 41 41 39 41 40 39 38 39 41 40 40 41 42 43 45 45 46 46 45 46 45 43 41 40 42 42 42 42 41 43 43 43 43 43 41 40 38 38 38 42 43
44 44 43 43 42 41 43 42 42 42 42 42 42 43 44 44 42 42 43 43 41 40 41 41 41 41 40 38 39 39 38 38 39 40 41 42 41 40 39 38 38 38 39 39 39 41 42 42 42 41 41 42 41 43 45 45 42 41 42 42 42 41 41 42 41 42 42 41 41 37 36 37 38 42
42 43 43 43 43 43 42 41 42 43 43 43 42 41 42 42 41 42 42 42 42 40 41 41 41 40 39 41 39 37 38 39 38 39 37 38 38 38 38 38 37 38 39 39 40 41 41 41 40 38 35 35 35 34 36 44 44 42 39 36 39 39 40 40 40 39 38 38 39 37 35 35 37 41
43 43 43 43 45 45 42 44 44 44 46 43 43 44 42 40 40 42 43 41 43 41 40 40 39 38 40 38 37 39 39 37 36 36 37 38 38 38 36 35 35 36 37 39 40 40 40 39 39 37 35 33 33 32 35 38 40 43 42 37 37 39 39 39 36 33 34 37 37 37 36 35 36 40
43 43 44 45 48 48 47 45 42 42 44 44 44 44 45 45 45 45 45 43 40 39 41 40 40 40 39 40 39 38 38 38 39 38 37 38 37 36 35 34 34 35 37 38 38 39 39 38 37 37 35 33 32 32 32 36 36 38 42 41 37 36 35 35 35 35 36 38 37 38 38 36 35 37
46 44 45 45 47 50 45 44 43 43 46 44 43 42 43 46 42 42 41 39 40 38 39 40 38 39 39 38 39 39 39 39 39 38 38 37 37 36 35 35 35 35 36 35 37 38 38 37 37 37 35 33 32 32 33 32 33 36 39 40 39 36 36 35 35 35 34 34 36 37 36 38 41 40
48 48 48 48 49 49 48 47 45 47 43 44 43 45 43 41 41 39 39 38 39 40 37 38 39 40 38 40 38 38 39 39 39 39 38 36 36 36 35 34 35 35 35 35 34 36 37 37 37 36 36 36 36 37 36 36 36 36 36 37 38 38 37 36 34 34 33 34 34 33 33 35 34 37
46 47 47 49 50 48 48 48 48 45 46 47 46 43 42 43 40 40 38 38 40 40 41 39 38 38 39 38 38 39 38 38 38 36 36 36 36 35 34 34 34 35 34 34 34 35 36 38 39 36 37 37 36 36 34 33 32 33 36 37 37 37 38 38 36 34 32 33 32 32 31 32 33 34
47 48 50 49 49 50 50 49 48 46 45 43 42 41 40 39 39 42 39 39 38 39 38 38 38 37 37 37 37 37 35 34 34 33 34 34 35 35 35 35 35 35 34 34 34 35 38 40 39 39 38 36 35 33 32 33 33 34 36 37 35 36 36 36 37 36 34 32 31 30 31 32 33 32
45 49 49 47 49 51 51 48 47 45 42 42 40 41 41 40 38 38 38 39 37 38 39 38 37 37 36 35 36 37 36 34 35 35 36 36 36 35 35 35 35 35 35 35 36 36 37 38 38 37 36 35 35 34 33 34 35 35 35 36 36 33 33 36 35 35 35 35 34 32 31 31 30 30
44 48 47 48 48 49 49 48 47 43 42 41 40 42 42 41 39 41 39 38 38 37 38 37 36 35 35 36 36 37 36 36 38 38 37 36 36 36 36 36 36 35 35 35 36 36 37 36 36 36 35 35 35 34 34 34 34 35 36 35 36 35 33 33 32 33 34 35 34 33 33 33 33 33
44 46 47 45 45 44 45 43 43 43 42 41 40 41 40 39 40 40 39 38 37 37 37 36 35 35 35 35 35 36 37 39 38 37 37 36 36 37 36 36 36 35 36 36 35 35 36 36 36 36 35 35 35 35 35 35 35 35 35 35 34 35 34 35 34 33 33 33 34 34 33 34 34 34
MSLP
1018.84 1018.92 1019.00 1019.16 1019.16 1019.12 1019.04 1019.00 1019.00 1019.00 1018.96 1018.96 1019.24 1019.40 1020.00 1020.36 1021.12 1021.88 1022.36 1022.40 1022.28 1022.12 1022.00 1022.76 1022.68 1022.56 1022.76 1022.88 1022.96 1023.20 1023.36 1023.52 1023.64 1023.64 1023.76 1023.84 1024.04 1024.16 1024.20 1024.20 1024.20 1024.16 1024.08 1024.08 1024.08 1024.08 1024.04 1024.00 1024.00 1024.00 1024.04 1024.00 1024.00 1024.00 1023.96 1023.88 1023.80 1023.76 1023.72 1023.68 1023.68 1023.60 1023.52 1023.48 1023.36 1023.16 1023.00 1022.80 1022.72 1022.68 1022.60 1022.52 1022.36 1022.24
1019.00 1019.08 1019.24 1019.32 1019.44 1019.32 1019.28 1019.24 1019.12 1019.12 1019.20 1019.24 1019.60 1019.92 1019.96 1020.12 1020.84 1021.04 1022.12 1022.60 1022.16 1022.36 1022.08 1022.16 1022.64 1022.56 1022.76 1022.76 1022.96 1023.12 1023.28 1023.28 1023.24 1023.28 1023.44 1023.64 1023.80 1023.96 1024.04 1024.08 1024.12 1024.08 1024.04 1023.96 1023.96 1024.00 1024.00 1024.00 1024.04 1024.04 1024.08 1024.12 1024.08 1024.08 1024.00 1023.92 1023.84 1023.76 1023.76 1023.76 1023.72 1023.64 1023.56 1023.52 1023.44 1023.32 1023.12 1023.00 1022.88 1022.76 1022.68 1022.56 1022.44 1022.32
1019.08 1019.32 1019.52 1019.52 1019.60 1019.52 1019.56 1019.56 1019.52 1019.52 1019.52 1019.56 1019.68 1019.84 1019.92 1020.04 1020.28 1020.84 1021.60 1022.64 1022.48 1022.08 1022.72 1022.40 1022.20 1022.44 1022.52 1022.60 1022.80 1023.04 1023.20 1023.24 1023.24 1023.20 1023.24 1023.40 1023.56 1023.76 1023.92 1024.04 1024.08 1024.08 1024.00 1023.92 1023.84 1023.84 1023.92 1024.00 1024.04 1024.04 1024.04 1024.04 1024.08 1024.08 1024.04 1024.00 1023.96 1023.92 1023.88 1023.84 1023.80 1023.68 1023.60 1023.52 1023.44 1023.32 1023.20 1023.12 1023.00 1022.92 1022.80 1022.68 1022.52 1022.40
1019.20 1019.40 1019.60 1019.64 1019.68 1019.64 1019.72 1019.80 1019.80 1019.84 1019.76 1019.80 1019.96 1020.08 1020.20 1020.36 1020.64 1020.96 1021.72 1022.44 1023.04 1022.40 1022.48 1022.52 1022.48 1022.44 1022.52 1022.52 1022.84 1023.00 1023.12 1023.12 1023.08 1023.08 1023.08 1023.12 1023.36 1023.56 1023.72 1023.92 1023.92 1024.00 1024.00 1023.88 1023.68 1023.64 1023.72 1023.80 1023.88 1023.92 1023.92 1023.92 1023.92 1023.92 1023.92 1023.92 1023.92 1023.96 1023.96 1023.96 1023.88 1023.80 1023.68 1023.60 1023.52 1023.40 1023.24 1023.16 1023.04 1022.96 1022.84 1022.72 1022.60 1022.52
1019.20 1019.44 1019.60 1019.60 1019.60 1019.60 1019.84 1019.92 1019.92 1019.92 1019.96 1020.00 1020.08 1020.16 1020.36 1020.60 1020.76 1021.12 1021.76 1022.52 1022.88 1022.60 1022.24 1022.40 1022.68 1022.56 1022.56 1022.60 1022.52 1022.88 1022.96 1023.00 1022.96 1022.88 1022.80 1022.92 1023.04 1023.28 1023.40 1023.56 1023.72 1023.84 1023.88 1023.92 1023.64 1023.52 1023.52 1023.60 1023.68 1023.72 1023.72 1023.72 1023.72 1023.72 1023.76 1023.76 1023.80 1023.84 1023.88 1023.92 1023.92 1023.84 1023.80 1023.72 1023.68 1023.60 1023.44 1023.32 1023.20 1023.08 1022.96 1022.84 1022.72 1022.56
1019.28 1019.44 1019.64 1019.76 1019.72 1019.60 1019.84 1020.00 1019.92 1019.92 1020.04 1020.04 1020.20 1020.40 1020.56 1020.80 1020.92 1021.00 1021.56 1022.16 1022.64 1023.04 1022.56 1022.56 1022.52 1022.64 1022.52 1022.80 1022.40 1022.80 1022.92 1022.92 1022.72 1022.64 1022.60 1022.64 1022.64 1022.80 1023.04 1023.24 1023.48 1023.68 1023.72 1023.68 1023.60 1023.40 1023.32 1023.36 1023.44 1023.52 1023.52 1023.52 1023.56 1023.52 1023.56 1023.64 1023.68 1023.72 1023.76 1023.80 1023.80 1023.80 1023.80 1023.80 1023.76 1023.68 1023.56 1023.44 1023.32 1023.20 1023.08 1022.96 1022.80 1022.60
1019.40 1019.64 1019.84 1019.96 1019.88 1019.88 1020.04 1020.04 1019.96 1020.04 1020.24 1020.16 1020.48 1020.72 1020.92 1021.24 1021.24 1021.24 1021.40 1021.88 1022.60 1022.84 1022.72 1022.36 1022.60 1022.72 1022.60 1022.64 1022.60 1022.52 1022.56 1022.52 1022.56 1022.68 1022.56 1022.44 1022.36 1022.32 1022.48 1022.84 1023.16 1023.32 1023.36 1023.40 1023.48 1023.36 1023.20 1023.16 1023.20 1023.28 1023.32 1023.32 1023.36 1023.36 1023.40 1023.44 1023.48 1023.56 1023.60 1023.68 1023.68 1023.72 1023.76 1023.76 1023.68 1023.60 1023.52 1023.40 1023.28 1023.20 1023.08 1022.96 1022.76 1022.48
1019.60 1019.80 1020.04 1020.16 1020.16 1020.16 1020.32 1020.32 1020.24 1020.28 1020.32 1020.48 1020.60 1020.88 1021.00 1021.16 1021.36 1021.32 1021.40 1021.48 1021.96 1022.24 1022.64 1022.32 1022.52 1022.56 1022.56 1022.52 1022.12 1022.00 1022.20 1022.52 1022.64 1022.64 1022.48 1022.28 1022.44 1022.52 1022.60 1022.60 1022.72 1023.00 1023.20 1023.36 1023.36 1023.28 1023.04 1022.92 1022.96 1023.04 1023.08 1023.16 1023.16 1023.20 1023.24 1023.24 1023.28 1023.36 1023.48 1023.56 1023.64 1023.68 1023.72 1023.68 1023.64 1023.56 1023.48 1023.40 1023.28 1023.12 1023.00 1022.88 1022.68 1022.40
1019.60 1019.84 1020.04 1020.20 1020.24 1020.32 1020.56 1020.60 1020.56 1020.48 1020.68 1020.68 1020.64 1020.92 1021.04 1021.28 1021.32 1021.36 1021.40 1021.48 1021.48 1021.92 1022.28 1022.32 1022.24 1022.08 1022.16 1022.20 1022.12 1021.96 1022.32 1022.28 1022.20 1022.24 1022.36 1022.48 1022.72 1022.88 1022.88 1022.92 1022.76 1022.92 1023.20 1023.24 1023.24 1023.12 1022.92 1022.76 1022.80 1022.84 1022.92 1022.96 1022.96 1023.00 1023.04 1023.04 1023.08 1023.16 1023.32 1023.44 1023.52 1023.56 1023.60 1023.60 1023.60 1023.60 1023.56 1023.48 1023.40 1023.20 1023.04 1022.84 1022.64 1022.36
1019.60 1019.80 1019.96 1020.12 1020.24 1020.40 1020.68 1020.76 1020.72 1020.72 1020.84 1020.88 1021.00 1021.16 1021.12 1021.32 1021.44 1021.60 1021.52 1021.68 1021.68 1021.76 1022.12 1022.12 1022.36 1022.20 1022.28 1022.24 1022.16 1022.00 1022.20 1022.36 1022.36 1022.52 1022.80 1022.80 1022.92 1023.12 1023.24 1023.20 1023.04 1022.88 1023.00 1023.12 1023.08 1023.00 1022.88 1022.76 1022.68 1022.68 1022.72 1022.76 1022.76 1022.72 1022.76 1022.84 1022.84 1022.96 1023.08 1023.24 1023.36 1023.40 1023.44 1023.48 1023.48 1023.44 1023.44 1023.40 1023.36 1023.28 1023.12 1022.88 1022.64 1022.40
1019.60 1019.72 1019.84 1020.08 1020.24 1020.40 1020.52 1020.68 1020.84 1020.96 1021.08 1021.20 1021.28 1021.28 1021.32 1021.40 1021.60 1021.72 1021.80 1021.84 1021.88 1021.96 1022.00 1022.04 1021.96 1022.24 1022.24 1022.24 1022.52 1022.08 1022.04 1022.32 1022.52 1023.00 1023.12 1023.24 1023.08 1023.16 1023.28 1023.36 1023.12 1022.92 1022.72 1022.56 1022.48 1022.48 1022.52 1022.48 1022.48 1022.48 1022.52 1022.52 1022.44 1022.36 1022.48 1022.52 1022.56 1022.72 1022.92 1023.04 1023.16 1023.24 1023.28 1023.32 1023.32 1023.32 1023.28 1023.24 1023.24 1023.16 1023.08 1022.92 1022.76 1022.52
1019.68 1019.72 1019.80 1019.92 1020.08 1020.20 1020.32 1020.60 1020.84 1020.96 1021.24 1021.36 1021.48 1021.36 1021.36 1021.52 1021.68 1021.76 1021.80 1021.92 1022.04 1022.12 1022.20 1022.16 1022.16 1022.00 1022.40 1022.40 1022.28 1022.28 1022.28 1022.52 1022.64 1022.72 1022.92 1023.28 1023.40 1023.40 1023.32 1023.32 1023.28 1022.96 1022.80 1022.76 1022.60 1022.48 1022.52 1022.48 1022.44 1022.40 1022.32 1022.20 1022.00 1021.96 1022.16 1022.28 1022.28 1022.56 1022.76 1022.88 1023.00 1023.00 1023.08 1023.16 1023.20 1023.20 1023.12 1023.08 1023.12 1023.08 1022.96 1022.84 1022.72 1022.60
1019.64 1019.72 1019.88 1020.16 1020.12 1020.04 1020.12 1020.48 1020.84 1021.24 1021.40 1021.56 1021.72 1021.72 1021.56 1021.60 1021.72 1021.88 1021.92 1022.00 1022.04 1022.16 1022.20 1022.28 1022.08 1022.12 1022.20 1022.36 1022.60 1022.68 1022.72 1022.92 1023.08 1022.88 1023.08 1023.40 1023.40 1023.44 1023.44 1023.24 1023.12 1022.92 1022.88 1022.84 1022.88 1022.76 1022.68 1022.68 1022.60 1022.44 1022.28 1022.00 1021.76 1021.76 1021.96 1022.00 1022.08 1022.36 1022.48 1022.60 1022.72 1022.76 1022.88 1022.96 1023.00 1022.96 1022.88 1022.88 1022.96 1022.96 1022.88 1022.80 1022.68 1022.52
1019.56 1019.88 1020.12 1020.12 1020.16 1020.44 1020.56 1020.52 1020.80 1021.20 1021.56 1021.84 1021.96 1022.12 1022.00 1021.68 1021.84 1022.04 1022.16 1022.24 1022.28 1022.32 1022.52 1022.48 1022.36 1022.52 1022.64 1022.48 1022.52 1022.60 1023.00 1023.20 1023.16 1023.28 1023.40 1023.64 1023.56 1023.52 1023.48 1023.36 1023.16 1022.96 1023.08 1023.16 1023.08 1022.88 1022.80 1022.80 1022.60 1022.40 1022.16 1021.92 1021.84 1021.72 1021.80 1021.88 1021.88 1022.00 1022.20 1022.32 1022.44 1022.56 1022.68 1022.76 1022.80 1022.68 1022.64 1022.72 1022.76 1022.76 1022.72 1022.64 1022.52 1022.36
1020.08 1020.24 1020.24 1020.28 1020.36 1020.44 1020.64 1020.80 1020.84 1021.04 1021.44 1021.80 1022.04 1022.28 1022.36 1022.16 1021.92 1022.16 1022.32 1022.40 1022.36 1022.44 1022.52 1022.44 1022.52 1022.68 1022.84 1023.04 1023.08 1023.24 1023.36 1023.36 1023.44 1023.52 1023.60 1023.68 1023.68 1023.72 1023.80 1023.84 1023.36 1023.16 1023.32 1023.40 1023.40 1023.04 1022.80 1022.80 1022.60 1022.28 1022.08 1022.00 1021.84 1021.68 1021.72 1021.68 1021.76 1021.80 1021.96 1022.12 1022.28 1022.40 1022.48 1022.56 1022.48 1022.36 1022.44 1022.48 1022.52 1022.52 1022.44 1022.32 1022.20 1022.04
1020.04 1020.36 1020.48 1020.56 1020.48 1020.44 1020.52 1020.80 1021.12 1021.28 1021.48 1021.76 1022.00 1022.28 1022.44 1022.52 1022.44 1022.44 1022.44 1022.68 1022.76 1022.88 1022.88 1022.72 1022.60 1022.68 1022.88 1023.12 1023.36 1023.48 1023.68 1023.84 1023.68 1023.72 1023.72 1023.76 1023.88 1024.04 1024.16 1024.08 1024.04 1023.44 1023.48 1023.68 1023.68 1023.20 1022.72 1022.52 1022.40 1022.28 1022.04 1021.84 1021.76 1021.68 1021.68 1021.76 1021.72 1021.80 1021.96 1022.04 1022.12 1022.20 1022.32 1022.24 1022.12 1022.12 1022.16 1022.20 1022.24 1022.16 1022.08 1022.00 1021.88 1021.76
1020.20 1020.56 1020.84 1020.76 1020.80 1020.64 1020.76 1020.80 1020.96 1021.20 1021.60 1022.04 1022.36 1022.44 1022.64 1022.80 1022.80 1022.72 1022.72 1022.76 1022.84 1022.84 1022.92 1022.84 1022.84 1023.00 1023.04 1023.24 1023.64 1023.64 1023.80 1023.76 1023.92 1023.96 1024.04 1024.12 1024.28 1024.32 1024.40 1024.24 1024.08 1023.76 1023.64 1023.64 1023.56 1023.28 1022.72 1022.52 1022.32 1022.20 1021.84 1021.68 1021.60 1021.56 1021.56 1021.60 1021.76 1021.84 1021.88 1021.92 1021.96 1022.04 1021.96 1021.92 1021.92 1021.84 1021.84 1021.92 1021.92 1021.88 1021.84 1021.76 1021.68 1021.56
1020.48 1020.84 1020.60 1020.80 1020.84 1020.68 1020.68 1020.76 1020.92 1021.08 1021.40 1021.80 1022.12 1022.36 1022.60 1022.80 1023.08 1023.12 1022.96 1022.84 1022.84 1022.84 1022.84 1022.88 1022.96 1023.08 1023.04 1023.48 1023.68 1023.80 1023.80 1024.00 1024.28 1024.40 1024.52 1024.52 1024.60 1024.60 1024.52 1024.28 1024.16 1023.80 1023.56 1023.60 1023.40 1023.24 1022.92 1022.40 1022.08 1021.88 1021.68 1021.60 1021.56 1021.60 1021.56 1021.56 1021.60 1021.72 1021.76 1021.76 1021.68 1021.68 1021.76 1021.72 1021.56 1021.48 1021.52 1021.68 1021.64 1021.60 1021.60 1021.56 1021.44 1021.32
1020.84 1020.76 1020.52 1020.16 1020.16 1020.32 1020.48 1020.60 1020.76 1020.96 1021.40 1021.80 1021.96 1022.16 1022.36 1022.56 1022.84 1023.04 1023.20 1023.04 1023.00 1022.96 1022.96 1023.08 1023.36 1023.52 1023.60 1023.80 1023.92 1024.08 1024.16 1024.32 1024.44 1024.56 1024.64 1024.68 1024.64 1024.48 1024.28 1024.16 1023.92 1023.64 1023.32 1023.16 1023.24 1023.08 1022.28 1022.00 1022.04 1021.92 1021.76 1021.64 1021.64 1021.60 1021.60 1021.60 1021.56 1021.48 1021.44 1021.44 1021.56 1021.56 1021.44 1021.24 1021.16 1021.20 1021.40 1021.48 1021.40 1021.32 1021.40 1021.32 1021.24 1021.12
1020.08 1020.36 1020.04 1019.96 1019.92 1020.08 1020.36 1020.56 1020.72 1020.92 1021.20 1021.56 1021.80 1022.04 1022.20 1022.36 1022.88 1023.36 1023.80 1023.80 1023.44 1023.32 1023.40 1023.52 1023.68 1023.88 1024.04 1024.08 1024.20 1024.36 1024.48 1024.52 1024.60 1024.64 1024.68 1024.68 1024.60 1024.48 1024.40 1024.20 1023.72 1023.60 1023.12 1022.96 1022.92 1022.84 1022.56 1022.24 1022.16 1021.96 1021.80 1021.72 1021.76 1021.72 1021.68 1021.52 1021.40 1021.40 1021.32 1021.28 1021.32 1021.36 1021.28 1021.20 1021.20 1021.28 1021.36 1021.28 1021.16 1021.12 1021.16 1021.08 1020.96 1020.88
1019.92 1019.72 1019.60 1019.68 1019.76 1019.92 1020.20 1020.40 1020.68 1021.00 1021.00 1021.28 1021.60 1021.72 1021.92 1022.32 1022.92 1023.36 1023.68 1023.76 1023.56 1023.52 1023.56 1023.72 1023.88 1024.04 1024.12 1024.24 1024.44 1024.56 1024.60 1024.64 1024.68 1024.72 1024.84 1024.76 1024.72 1024.92 1024.96 1024.60 1024.20 1023.84 1023.64 1023.36 1023.16 1023.04 1022.92 1022.48 1022.40 1022.20 1022.00 1022.00 1022.00 1021.88 1021.72 1021.64 1021.60 1021.52 1021.48 1021.56 1021.60 1021.60 1021.52 1021.44 1021.32 1021.20 1021.12 1021.04 1020.96 1020.96 1020.92 1020.84 1020.76 1020.80
1020.04 1020.04 1019.64 1019.48 1019.48 1019.64 1019.92 1020.08 1020.32 1020.64 1020.80 1021.16 1021.36 1021.48 1021.64 1022.16 1022.72 1023.16 1023.40 1023.44 1023.52 1023.68 1023.76 1023.88 1024.00 1024.12 1024.24 1024.40 1024.44 1024.52 1024.60 1024.64 1024.68 1024.76 1024.92 1024.80 1024.92 1025.12 1025.00 1024.84 1024.48 1024.16 1023.92 1023.80 1023.80 1023.36 1023.28 1023.08 1022.76 1022.60 1022.20 1022.04 1021.92 1021.96 1021.92 1021.88 1021.80 1021.76 1021.76 1021.72 1021.68 1021.56 1021.40 1021.28 1021.12 1021.04 1020.96 1020.92 1020.84 1020.80 1020.72 1020.64 1020.72 1020.80
1019.96 1019.96 1020.00 1019.60 1019.36 1019.68 1020.12 1020.16 1020.20 1020.48 1020.68 1020.88 1021.08 1021.20 1021.48 1021.88 1022.40 1022.80 1023.00 1023.12 1023.32 1023.52 1023.64 1023.80 1023.96 1024.04 1024.20 1024.28 1024.28 1024.36 1024.48 1024.52 1024.56 1024.68 1024.72 1024.72 1024.92 1025.04 1024.88 1024.64 1024.44 1024.32 1023.80 1024.24 1024.08 1024.16 1023.96 1023.84 1023.48 1023.36 1022.92 1022.72 1022.32 1022.24 1022.24 1022.24 1022.16 1022.16 1022.08 1021.96 1021.76 1021.56 1021.32 1021.12 1020.96 1020.88 1020.80 1020.72 1020.68 1020.64 1020.60 1020.60 1020.72 1020.68
1019.56 1019.76 1019.96 1020.12 1019.96 1020.12 1020.48 1020.56 1020.60 1020.76 1020.84 1021.00 1021.00 1021.00 1021.36 1021.64 1021.88 1022.44 1022.80 1023.00 1023.16 1023.40 1023.40 1023.52 1023.72 1023.76 1023.80 1024.04 1024.24 1024.28 1024.32 1024.48 1024.76 1024.80 1024.80 1024.84 1024.80 1024.80 1024.76 1024.44 1024.28 1024.32 1023.96 1024.20 1024.40 1024.76 1024.44 1024.28 1024.12 1023.76 1023.76 1023.68 1023.24 1022.68 1022.60 1022.52 1022.56 1022.52 1022.44 1022.20 1021.92 1021.64 1021.40 1021.16 1021.00 1020.84 1020.76 1020.72 1020.64 1020.56 1020.56 1020.60 1020.60 1020.36
1019.36 1019.80 1020.24 1020.36 1020.68 1020.40 1020.48 1020.56 1020.68 1020.84 1021.00 1021.12 1021.16 1021.40 1021.80 1022.16 1022.24 1022.40 1022.84 1023.04 1023.04 1023.16 1023.28 1023.32 1023.36 1023.40 1023.44 1023.72 1023.92 1024.04 1024.16 1024.36 1024.56 1024.76 1024.88 1024.92 1024.92 1025.00 1025.16 1025.20 1025.20 1025.12 1024.80 1024.56 1024.48 1024.68 1024.68 1024.56 1024.40 1024.12 1024.00 1023.92 1023.60 1023.32 1023.00 1023.08 1022.80 1022.80 1022.56 1022.36 1022.12 1021.80 1021.56 1021.36 1021.20 1021.00 1020.80 1020.68 1020.56 1020.48 1020.44 1020.40 1020.20 1020.08
1018.92 1019.56 1020.36 1020.76 1020.92 1020.60 1020.64 1020.72 1020.88 1021.08 1021.40 1021.60 1021.80 1022.12 1022.16 1022.28 1022.32 1022.52 1022.76 1022.88 1023.04 1023.16 1023.20 1023.16 1023.20 1023.28 1023.40 1023.36 1023.48 1023.48 1023.60 1024.12 1024.60 1024.80 1024.92 1024.96 1024.96 1024.96 1024.96 1025.08 1025.16 1025.16 1024.96 1024.60 1024.60 1024.68 1024.76 1024.68 1024.64 1024.64 1024.44 1024.32 1023.96 1023.92 1023.56 1023.28 1023.04 1022.68 1022.60 1022.48 1022.28 1022.00 1021.76 1021.56 1021.28 1021.08 1020.92 1020.76 1020.68 1020.56 1020.44 1020.36 1020.24 1020.12
1018.56 1019.56 1020.48 1021.00 1020.80 1020.56 1020.84 1021.04 1021.24 1021.48 1021.64 1021.84 1022.16 1022.20 1022.08 1022.28 1022.48 1022.60 1022.64 1022.80 1022.92 1022.96 1023.00 1023.04 1023.16 1023.28 1023.36 1023.44 1023.52 1023.68 1023.80 1024.08 1024.32 1024.40 1024.48 1024.44 1024.44 1024.52 1024.60 1024.64 1024.68 1024.72 1024.56 1024.48 1024.48 1024.56 1024.64 1024.68 1024.48 1024.60 1024.52 1024.32 1024.24 1023.84 1023.80 1023.48 1022.96 1022.72 1022.56 1022.36 1022.20 1022.04 1021.84 1021.64 1021.44 1021.20 1021.04 1020.84 1020.72 1020.56 1020.44 1020.32 1020.24 1020.12
1018.84 1019.72 1020.60 1021.04 1020.84 1020.84 1021.08 1021.36 1021.56 1021.72 1021.88 1022.24 1022.44 1022.40 1022.48 1022.56 1022.72 1022.68 1022.68 1022.84 1022.92 1023.00 1023.04 1023.20 1023.36 1023.44 1023.40 1023.48 1023.68 1023.88 1024.12 1024.20 1024.20 1024.24 1024.24 1024.28 1024.28 1024.32 1024.32 1024.40 1024.48 1024.52 1024.52 1024.48 1024.44 1024.40 1024.44 1024.44 1024.32 1024.24 1024.20 1024.20 1024.16 1024.08 1023.84 1023.32 1023.12 1022.84 1022.64 1022.20 1022.16 1021.96 1021.80 1021.68 1021.52 1021.32 1021.04 1020.84 1020.72 1020.56 1020.48 1020.36 1020.24 1020.12
1019.00 1019.92 1020.72 1021.00 1020.88 1021.04 1021.28 1021.56 1021.76 1022.04 1022.24 1022.32 1022.40 1022.52 1022.60 1022.72 1022.72 1022.72 1022.68 1022.64 1022.76 1022.96 1023.12 1023.20 1023.28 1023.40 1023.52 1023.68 1023.84 1024.04 1024.12 1024.16 1024.16 1024.28 1024.28 1024.24 1024.32 1024.28 1024.28 1024.36 1024.40 1024.44 1024.44 1024.40 1024.36 1024.28 1024.20 1024.16 1024.08 1023.96 1023.92 1023.84 1023.92 1023.72 1023.64 1023.32 1023.08 1022.76 1022.64 1022.56 1022.28 1021.96 1021.92 1021.80 1021.52 1021.20 1021.00 1020.84 1020.72 1020.60 1020.52 1020.40 1020.24 1020.08
1019.60 1020.04 1020.52 1020.84 1021.12 1021.28 1021.44 1021.60 1021.88 1022.16 1022.44 1022.56 1022.68 1022.80 1022.92 1022.88 1022.84 1022.68 1022.60 1022.64 1022.80 1023.04 1023.16 1023.28 1023.48 1023.56 1023.68 1023.88 1024.00 1024.04 1024.04 1024.16 1024.32 1024.28 1024.28 1024.32 1024.28 1024.36 1024.52 1024.60 1024.60 1024.52 1024.48 1024.36 1024.24 1024.16 1024.04 1023.96 1023.84 1023.80 1023.72 1023.64 1023.60 1023.56 1023.40 1023.28 1023.00 1022.76 1022.68 1022.68 1022.40 1022.04 1021.84 1021.64 1021.40 1021.16 1021.00 1020.88 1020.76 1020.68 1020.52 1020.36 1020.12 1020.00
1019.92 1020.28 1020.56 1020.96 1021.20 1021.40 1021.52 1021.76 1022.08 1022.40 1022.72 1022.76 1022.88 1022.92 1022.96 1022.88 1022.80 1022.80 1023.00 1023.24 1023.28 1023.40 1023.40 1023.48 1023.64 1023.80 1023.92 1024.00 1024.08 1024.16 1024.24 1024.28 1024.16 1024.24 1024.40 1024.56 1024.68 1024.72 1024.76 1024.84 1024.88 1024.80 1024.60 1024.40 1024.20 1024.08 1023.96 1023.84 1023.72 1023.64 1023.68 1023.52 1023.44 1023.36 1023.16 1023.12 1023.00 1022.80 1022.56 1022.44 1022.40 1022.52 1021.76 1021.52 1021.28 1021.12 1021.00 1020.92 1020.80 1020.64 1020.48 1020.28 1020.08 1019.92
1019.84 1020.40 1020.88 1021.12 1021.36 1021.48 1021.76 1022.12 1022.48 1022.64 1022.68 1022.68 1022.80 1022.84 1022.80 1022.84 1022.96 1023.04 1023.16 1023.28 1023.44 1023.52 1023.48 1023.68 1023.84 1024.04 1024.16 1024.24 1024.24 1024.20 1024.20 1024.24 1024.44 1024.56 1024.68 1024.84 1024.96 1024.96 1025.00 1025.12 1025.04 1024.84 1024.60 1024.32 1024.12 1023.96 1023.88 1023.80 1023.68 1023.56 1023.52 1023.40 1023.36 1023.08 1023.00 1022.96 1022.88 1022.68 1022.48 1022.28 1022.20 1021.96 1021.68 1021.52 1021.32 1021.20 1021.04 1020.92 1020.80 1020.64 1020.52 1020.36 1020.16 1019.92
1020.08 1020.40 1020.72 1021.12 1021.32 1021.48 1021.68 1022.00 1022.24 1022.52 1022.64 1022.72 1022.68 1022.60 1022.48 1022.68 1022.88 1023.04 1023.20 1023.44 1023.56 1023.68 1023.76 1023.96 1024.12 1024.24 1024.32 1024.40 1024.36 1024.32 1024.40 1024.56 1024.64 1024.68 1024.92 1024.96 1025.04 1025.04 1025.08 1025.12 1025.04 1024.88 1024.80 1024.60 1024.36 1024.16 1023.96 1023.80 1023.64 1023.48 1023.32 1023.16 1023.04 1022.96 1022.92 1022.88 1022.56 1022.44 1022.36 1022.12 1022.04 1021.88 1021.60 1021.40 1021.36 1021.24 1021.04 1020.96 1020.88 1020.72 1020.56 1020.36 1020.20 1019.96
1019.72 1020.28 1020.64 1021.00 1021.24 1021.40 1021.60 1021.80 1022.00 1022.24 1022.40 1022.48 1022.44 1022.56 1022.80 1022.80 1022.88 1023.08 1023.20 1023.28 1023.68 1023.76 1023.84 1024.00 1024.16 1024.28 1024.40 1024.48 1024.40 1024.36 1024.48 1024.64 1024.76 1024.80 1024.96 1025.08 1025.04 1025.16 1025.20 1025.24 1025.12 1025.00 1025.00 1024.88 1024.64 1024.36 1024.08 1023.80 1023.56 1023.32 1023.12 1022.96 1022.80 1022.72 1022.68 1022.72 1022.44 1022.20 1022.04 1021.96 1021.84 1021.72 1021.48 1021.40 1021.28 1021.20 1021.08 1021.04 1020.92 1020.80 1020.60 1020.40 1020.12 1019.88
1019.68 1020.12 1020.60 1020.92 1021.12 1021.24 1021.40 1021.60 1021.68 1021.88 1022.08 1022.24 1022.48 1022.76 1022.84 1022.96 1023.16 1023.32 1023.36 1023.56 1023.68 1023.80 1024.00 1024.04 1024.16 1024.24 1024.32 1024.36 1024.32 1024.44 1024.56 1024.76 1024.84 1024.88 1024.88 1025.00 1025.08 1025.20 1025.24 1025.32 1025.24 1025.16 1025.00 1024.80 1024.56 1024.24 1024.08 1023.84 1023.68 1023.52 1023.28 1023.12 1022.88 1022.44 1022.40 1022.36 1022.36 1022.08 1021.96 1021.84 1021.76 1021.72 1021.60 1021.44 1021.32 1021.20 1021.12 1021.00 1020.92 1020.84 1020.60 1020.36 1020.08 1019.76
1019.96 1020.12 1020.44 1020.72 1020.96 1021.08 1021.24 1021.40 1021.44 1021.64 1021.88 1022.12 1022.40 1022.72 1022.92 1023.00 1023.16 1023.28 1023.52 1023.64 1023.72 1023.92 1024.04 1024.16 1024.24 1024.24 1024.20 1024.16 1024.32 1024.48 1024.60 1024.68 1024.80 1024.92 1025.04 1025.08 1025.16 1025.20 1025.20 1025.20 1025.16 1025.00 1024.88 1024.72 1024.52 1024.32 1024.20 1024.04 1023.92 1023.88 1023.76 1023.48 1023.32 1022.96 1022.52 1022.04 1022.00 1022.04 1022.12 1022.00 1021.84 1021.76 1021.60 1021.40 1021.28 1021.20 1021.20 1021.12 1020.88 1020.76 1020.68 1020.40 1020.12 1019.68
1019.76 1020.08 1020.32 1020.56 1020.72 1020.84 1021.04 1021.04 1021.24 1021.40 1021.64 1021.92 1022.20 1022.56 1022.76 1022.96 1023.08 1023.32 1023.60 1023.64 1023.76 1023.88 1024.04 1024.20 1024.28 1024.20 1024.12 1024.28 1024.40 1024.44 1024.56 1024.72 1024.92 1024.96 1025.04 1025.04 1025.00 1025.04 1025.12 1025.12 1025.08 1025.04 1024.92 1024.72 1024.60 1024.48 1024.40 1024.28 1024.08 1023.96 1023.88 1023.72 1023.52 1023.20 1022.60 1022.12 1022.04 1022.12 1022.16 1022.16 1021.92 1021.68 1021.52 1021.36 1021.32 1021.20 1021.04 1020.92 1020.72 1020.64 1020.56 1020.40 1020.04 1019.64
1019.64 1019.84 1020.16 1020.32 1020.44 1020.56 1020.64 1020.84 1021.04 1021.32 1021.60 1021.84 1022.04 1022.28 1022.40 1022.64 1022.88 1023.20 1023.36 1023.56 1023.80 1023.96 1024.08 1024.16 1024.20 1024.08 1024.12 1024.12 1024.20 1024.32 1024.44 1024.56 1024.68 1024.80 1024.88 1024.88 1025.00 1025.12 1025.24 1025.28 1025.20 1025.08 1024.96 1024.76 1024.64 1024.48 1024.40 1024.28 1024.12 1023.96 1023.92 1023.96 1023.64 1023.28 1022.88 1022.36 1022.44 1022.04 1021.96 1022.04 1021.96 1021.60 1021.48 1021.48 1021.32 1021.08 1020.80 1020.68 1020.76 1020.64 1020.48 1020.32 1019.96 1019.60
1019.28 1019.52 1019.72 1019.92 1020.00 1020.16 1020.40 1020.72 1020.96 1021.28 1021.56 1021.84 1022.12 1022.40 1022.56 1022.68 1022.92 1023.12 1023.36 1023.68 1023.96 1024.16 1024.28 1024.28 1024.16 1024.00 1023.88 1023.88 1023.92 1024.08 1024.24 1024.40 1024.60 1024.68 1024.76 1024.84 1025.00 1025.12 1025.16 1025.20 1025.16 1025.00 1024.96 1024.84 1024.60 1024.44 1024.28 1024.20 1024.00 1023.88 1023.88 1024.00 1023.88 1023.68 1023.52 1023.20 1022.56 1021.96 1021.64 1021.48 1021.64 1021.60 1021.32 1021.32 1021.16 1021.00 1021.04 1021.08 1020.88 1020.68 1020.44 1020.08 1019.72 1019.36
1018.92 1019.16 1019.36 1019.48 1019.60 1019.88 1020.32 1020.60 1020.92 1021.24 1021.56 1021.88 1022.16 1022.40 1022.60 1022.84 1023.00 1023.20 1023.56 1023.88 1024.12 1024.16 1024.20 1024.16 1024.08 1023.96 1023.84 1023.76 1023.80 1023.92 1024.08 1024.28 1024.44 1024.52 1024.68 1024.92 1025.04 1025.12 1025.20 1025.20 1025.20 1025.04 1024.96 1024.84 1024.68 1024.40 1024.20 1024.00 1023.88 1023.76 1023.76 1023.76 1023.56 1023.36 1023.16 1022.96 1022.64 1022.08 1021.72 1021.28 1021.28 1021.20 1021.16 1021.12 1021.24 1021.32 1021.24 1021.24 1021.24 1021.00 1020.56 1020.04 1019.84 1019.28
1019.20 1019.12 1019.12 1019.20 1019.44 1019.84 1020.24 1020.56 1020.92 1021.28 1021.64 1021.92 1022.36 1022.56 1022.64 1022.88 1023.16 1023.48 1023.68 1023.96 1024.12 1024.12 1024.08 1024.12 1024.04 1023.92 1023.88 1023.80 1023.80 1023.88 1024.00 1024.12 1024.28 1024.72 1025.04 1025.08 1025.16 1025.20 1025.20 1025.16 1025.08 1024.92 1024.96 1024.80 1024.64 1024.40 1024.12 1023.80 1023.56 1023.44 1023.40 1023.28 1023.12 1023.00 1022.96 1022.80 1022.48 1021.80 1021.40 1021.20 1021.32 1021.28 1021.20 1021.20 1021.32 1021.44 1021.64 1021.60 1021.48 1021.20 1020.80 1020.36 1019.88 1019.52
1019.04 1018.88 1019.00 1019.16 1019.52 1019.88 1020.08 1020.48 1020.92 1021.36 1021.72 1022.16 1022.52 1022.68 1022.88 1023.08 1023.36 1023.52 1023.72 1023.96 1024.08 1024.12 1024.20 1024.16 1024.08 1024.04 1024.16 1024.24 1024.28 1024.36 1024.36 1024.56 1024.84 1024.96 1024.96 1025.04 1025.12 1025.08 1025.04 1024.96 1024.96 1024.80 1024.80 1024.72 1024.44 1024.16 1023.72 1023.44 1023.28 1023.20 1023.08 1023.00 1022.96 1023.04 1022.84 1022.56 1022.36 1021.88 1021.48 1021.24 1021.28 1021.48 1021.48 1021.44 1021.48 1021.52 1021.64 1021.64 1021.56 1021.28 1020.80 1020.20 1019.92 1019.72
1019.36 1018.92 1019.08 1019.16 1019.52 1019.84 1020.08 1020.44 1020.96 1021.40 1021.84 1022.24 1022.52 1022.80 1022.96 1023.12 1023.28 1023.40 1023.72 1023.88 1024.04 1024.24 1024.24 1024.16 1024.20 1024.32 1024.40 1024.44 1024.40 1024.32 1024.40 1024.60 1024.72 1024.84 1024.84 1024.88 1024.92 1024.96 1024.92 1024.80 1024.68 1024.60 1024.56 1024.40 1024.08 1023.84 1023.56 1023.32 1023.16 1023.04 1022.92 1022.84 1022.64 1022.56 1022.52 1022.16 1021.92 1021.76 1021.48 1021.28 1021.16 1021.56 1021.72 1021.64 1021.56 1021.56 1021.56 1021.56 1021.64 1021.60 1021.44 1021.20 1020.92 1020.24
1019.84 1018.92 1019.04 1019.32 1019.60 1019.88 1020.24 1020.72 1021.16 1021.48 1021.96 1022.36 1022.68 1022.88 1022.92 1022.92 1023.16 1023.40 1023.56 1023.88 1024.12 1024.16 1024.16 1024.28 1024.48 1024.56 1024.60 1024.52 1024.40 1024.28 1024.36 1024.52 1024.56 1024.64 1024.76 1024.80 1024.80 1024.76 1024.68 1024.56 1024.44 1024.36 1024.28 1024.08 1023.88 1023.60 1023.36 1023.20 1023.00 1022.88 1022.80 1022.60 1022.36 1022.28 1022.16 1021.96 1021.76 1021.44 1021.28 1021.24 1021.12 1021.24 1021.44 1021.56 1021.64 1021.60 1021.56 1021.52 1021.56 1021.48 1021.28 1021.12 1021.00 1020.88
1019.68 1019.12 1019.20 1019.44 1019.72 1020.12 1020.56 1021.00 1021.32 1021.68 1022.04 1022.32 1022.56 1022.72 1022.92 1023.16 1023.36 1023.56 1023.96 1024.16 1024.20 1024.16 1024.32 1024.48 1024.64 1024.68 1024.68 1024.56 1024.40 1024.32 1024.28 1024.40 1024.60 1024.72 1024.80 1024.80 1024.72 1024.60 1024.48 1024.36 1024.24 1024.16 1024.08 1023.88 1023.80 1023.52 1023.24 1023.12 1022.88 1022.64 1022.52 1022.28 1022.08 1021.92 1021.68 1021.56 1021.40 1021.20 1021.24 1021.24 1021.32 1021.28 1021.32 1021.36 1021.40 1021.48 1021.56 1021.56 1021.56 1021.44 1021.32 1021.12 1020.96 1020.80
Wind_Speed
4 5 5 5 4 5 4 5 4 5 4 4 4 1 2 3 6 4 5 4 4 3 5 5 3 5 4 4 4 4 4 5 6 5 4 5 4 5 6 4 4 4 5 5 4 4 5 6 7 8 8 8 8 7 7 7 8 8 9 9 8 7 6 6 7 9 9 10 10 10 9 10 11 11
3 6 7 6 6 4 4 4 4 5 5 6 6 7 4 5 2 4 6 4 2 2 5 3 4 4 4 4 5 5 3 4 4 2 6 5 4 8 7 6 5 4 4 5 4 4 4 4 5 6 6 6 6 6 6 6 7 8 8 8 8 8 8 7 8 9 9 10 10 10 10 10 11 11
4 5 6 4 3 3 3 3 4 4 3 3 6 6 6 6 6 9 7 5 3 3 4 4 4 3 4 4 4 4 4 2 1 2 2 4 8 10 6 7 5 5 4 5 5 4 3 3 3 4 5 5 5 5 5 5 5 6 6 7 7 9 9 10 10 10 10 10 10 11 11 11 11 11
5 5 5 4 4 4 5 4 5 5 5 6 5 5 5 6 8 9 7 7 4 3 3 3 4 3 1 5 6 5 4 3 6 4 3 5 9 6 5 8 8 7 6 6 6 4 3 1 3 4 5 5 5 4 4 4 4 4 4 4 6 7 8 9 10 11 11 11 11 11 12 12 12 12
5 6 4 4 5 5 4 4 4 4 4 4 5 5 5 6 4 7 8 7 5 3 1 2 4 3 3 1 4 4 2 2 3 5 3 6 5 5 5 6 9 9 8 7 6 6 4 2 2 4 6 7 6 5 5 4 4 4 4 3 4 6 8 9 10 10 10 11 11 12 12 12 13 13
4 4 5 5 4 3 5 4 3 3 3 5 3 6 5 6 6 6 3 6 4 3 1 4 4 2 0 1 4 5 3 2 3 3 3 6 7 6 7 6 6 10 9 9 8 6 6 3 3 5 6 7 7 7 6 5 4 4 4 3 3 6 7 8 8 9 10 10 11 11 12 12 13 13
4 5 5 4 3 3 4 3 4 6 7 6 8 7 6 6 5 4 3 4 5 5 3 4 4 2 0 1 1 7 5 3 1 3 1 0 2 1 5 6 5 11 13 11 7 7 6 5 5 7 8 8 8 8 7 5 4 4 4 3 3 5 6 6 7 8 9 10 11 11 11 12 13 13
4 4 4 3 3 3 4 4 4 4 3 5 5 5 4 4 3 4 2 4 2 5 5 1 4 4 4 3 3 1 3 5 4 5 5 0 4 7 7 5 1 9 13 10 10 9 8 8 8 9 10 10 10 9 8 7 6 4 3 1 2 3 4 5 6 8 9 10 11 12 12 12 13 14
4 4 4 3 3 2 3 2 2 3 5 3 4 3 6 5 2 2 3 3 3 4 2 2 2 1 0 0 1 1 3 2 1 1 1 4 6 6 7 6 7 6 11 10 11 11 10 9 9 10 11 11 11 10 9 8 7 5 3 2 1 1 3 3 5 7 9 10 11 12 12 12 12 13
4 3 4 4 3 2 3 0 3 3 2 3 4 5 4 5 3 3 1 2 1 2 3 2 3 1 0 2 1 1 3 1 2 2 7 5 4 5 5 4 5 5 2 4 6 8 10 9 11 11 11 12 13 13 11 10 9 7 5 5 4 2 2 3 3 4 5 7 9 11 12 13 12 13
3 2 4 4 3 2 1 2 4 3 4 4 2 2 3 2 3 1 1 0 1 2 0 1 2 4 3 1 1 2 1 3 4 4 3 3 2 2 3 4 5 4 5 5 5 7 7 6 4 7 10 11 13 14 12 11 11 8 7 6 6 5 4 4 4 3 3 5 7 9 10 11 12 12
3 1 3 4 4 3 2 5 3 2 2 2 3 3 2 2 2 0 0 2 2 1 1 2 1 1 3 4 2 3 5 3 3 3 2 1 3 4 3 4 6 4 4 4 5 4 3 5 6 8 9 12 14 14 11 11 12 8 8 8 8 7 6 6 6 5 4 3 5 8 10 10 11 11
4 4 3 6 3 3 10 11 9 8 7 3 3 4 3 1 1 1 3 3 0 1 2 3 1 0 1 3 4 1 1 1 1 3 5 4 3 3 6 4 4 4 4 4 5 6 6 7 7 7 7 8 7 6 9 9 11 9 10 10 10 9 8 7 7 6 4 4 5 6 8 9 10 10
4 4 5 2 7 10 8 11 12 11 9 7 5 2 5 1 2 2 2 3 3 2 3 4 3 4 3 1 3 1 4 5 5 6 5 4 4 5 4 5 2 4 5 6 7 6 5 6 7 7 6 5 4 4 4 5 6 8 12 12 11 10 8 7 7 5 3 5 6 7 7 8 9 10
7 4 2 2 4 8 7 7 11 12 10 9 7 6 6 6 3 2 1 1 2 2 1 1 1 3 3 7 8 7 3 5 5 4 3 3 3 3 4 6 5 2 7 5 7 9 6 6 7 6 6 6 6 5 2 4 10 10 12 12 11 10 9 9 7 4 5 6 6 7 8 9 10 10
6 6 4 2 2 4 5 4 5 7 8 9 8 6 6 7 10 8 5 2 3 3 4 3 3 3 3 4 5 4 4 3 4 4 4 3 4 4 4 4 5 4 6 6 7 9 7 4 5 6 6 5 3 5 5 4 8 9 10 12 11 10 10 8 5 6 7 7 8 9 10 10 11 11
7 5 3 1 0 1 6 5 5 5 6 7 8 8 7 7 6 7 8 6 3 1 3 3 3 3 1 4 3 3 2 3 3 4 4 4 4 3 4 5 5 7 7 7 7 8 6 6 7 6 6 5 4 3 6 8 3 9 10 11 11 11 8 6 9 10 10 8 10 10 11 12 12 12
5 3 6 5 5 3 6 5 5 4 6 6 6 4 3 2 3 3 5 6 4 2 0 1 1 3 3 4 3 4 4 5 4 3 3 3 3 4 5 5 7 8 7 7 7 7 7 8 6 4 5 4 3 4 7 11 8 4 9 11 11 8 7 10 12 13 10 9 11 11 11 13 13 13
7 9 8 6 7 7 6 6 7 6 7 6 6 5 4 4 3 1 2 3 2 3 4 5 6 5 5 5 5 4 5 4 3 2 3 4 4 5 5 6 8 9 8 8 4 5 4 3 5 4 5 4 5 4 5 9 13 14 13 11 8 8 12 14 14 13 10 10 12 11 11 13 14 14
7 8 8 7 6 6 5 7 11 7 7 5 6 6 5 5 5 4 0 1 5 6 5 5 4 4 4 6 4 3 3 3 3 4 4 4 4 5 5 5 4 5 6 5 6 5 5 4 5 4 4 5 6 5 6 10 14 11 9 7 9 11 13 13 12 10 9 11 13 11 11 13 14 14
2 5 9 8 7 7 7 9 12 9 11 5 6 6 6 6 5 3 2 2 7 9 10 9 8 8 7 7 6 6 6 4 2 1 3 3 4 6 6 6 5 5 6 7 8 5 6 4 6 6 4 4 6 7 6 5 6 9 10 8 8 10 12 12 12 12 11 12 12 11 12 13 14 14
3 1 2 4 6 9 7 12 15 15 10 7 6 6 6 7 6 4 3 2 3 6 7 7 6 5 4 4 3 5 6 5 3 2 2 1 3 4 4 5 4 5 6 4 8 5 5 7 7 7 5 4 3 5 6 8 9 12 10 13 13 12 12 12 12 12 12 12 12 12 12 13 11 8
3 2 4 2 7 7 9 12 14 11 6 3 6 5 6 5 6 6 6 4 3 2 2 1 1 1 2 1 2 3 7 8 7 2 2 2 2 4 5 6 4 3 3 6 11 7 7 8 7 8 7 6 3 4 6 7 7 8 9 9 10 14 15 15 11 9 10 11 12 12 13 12 9 7
5 5 4 6 10 13 11 10 10 8 6 1 3 7 6 5 5 7 5 4 4 4 3 3 4 4 4 3 3 3 5 5 3 3 3 3 4 4 5 5 4 4 3 3 10 5 4 5 7 5 5 7 6 5 6 6 7 8 9 9 7 10 13 12 10 12 11 10 10 11 11 11 9 5
6 6 4 5 5 12 12 12 13 13 11 9 5 7 7 3 3 7 5 4 6 2 1 1 1 2 2 4 5 4 4 4 5 5 4 4 3 5 5 6 6 5 6 6 12 6 5 5 6 6 6 5 6 7 5 8 8 7 7 7 9 9 7 7 7 7 9 12 12 12 10 12 15 11
7 7 6 5 6 12 13 14 14 14 13 12 8 7 9 9 12 6 4 3 2 3 4 3 3 3 2 1 1 2 2 5 3 3 3 1 1 2 1 2 4 5 5 5 8 4 5 5 4 6 6 6 7 7 9 7 6 6 6 8 7 7 8 9 8 7 6 6 6 7 10 13 13 13
7 8 7 6 10 14 14 14 15 14 14 11 7 10 11 10 6 2 1 2 2 0 0 2 3 4 4 4 1 2 3 5 4 3 2 1 1 1 1 2 2 4 5 4 4 4 3 4 3 5 6 5 7 7 6 7 7 7 7 6 7 7 7 7 7 7 7 7 5 9 9 9 11 12
10 9 8 8 13 14 14 13 13 13 11 8 9 9 8 6 2 0 1 3 3 1 0 1 1 4 1 3 4 3 4 3 2 2 2 3 3 4 3 1 2 3 4 4 4 4 4 4 4 4 5 6 7 8 9 6 7 7 9 8 7 7 6 6 8 8 7 5 5 5 5 6 5 6
9 13 15 13 14 15 15 15 14 11 10 10 9 8 6 2 0 1 2 0 3 2 1 2 1 1 3 2 3 4 3 3 4 4 4 1 1 0 1 1 2 3 3 3 3 4 5 5 6 5 5 5 5 6 6 8 8 8 6 8 8 7 7 8 8 6 6 6 5 5 5 5 6 5
21 19 16 16 15 13 10 8 6 6 5 7 7 5 2 0 2 3 1 2 3 1 0 2 3 2 3 3 4 4 4 3 2 1 3 4 5 5 5 5 5 4 4 4 5 4 5 4 4 4 4 5 4 6 6 7 8 7 6 6 7 8 6 6 7 8 6 5 6 6 6 6 6 6
13 14 12 9 8 8 11 12 10 8 5 4 2 1 2 2 1 5 6 5 4 3 3 1 3 3 4 4 4 3 2 3 3 3 4 5 5 6 5 4 5 5 5 5 5 5 5 5 5 4 6 6 5 6 6 6 8 8 7 6 6 8 7 8 7 5 5 6 6 7 6 6 5 5
11 11 10 11 8 8 8 7 4 3 2 2 3 3 3 2 5 5 6 4 1 1 0 4 4 4 4 4 3 2 3 2 4 6 5 5 5 4 5 4 4 5 5 5 4 4 4 4 5 5 5 5 7 6 5 6 7 8 8 8 7 7 7 6 6 6 6 7 7 6 6 6 6 6
10 8 8 6 6 6 5 5 5 5 3 3 4 5 3 5 5 3 3 2 2 2 5 4 3 1 1 3 3 3 4 4 4 4 6 3 3 4 3 4 5 5 6 6 6 6 5 6 6 7 6 6 6 6 7 8 7 6 7 7 7 8 7 6 5 6 6 6 6 6 7 5 6 7
10 7 7 5 5 5 4 4 5 5 4 4 2 3 5 2 2 3 2 1 5 3 3 1 0 0 1 2 3 1 1 3 3 3 3 3 3 3 4 4 4 4 5 6 6 7 6 7 6 6 6 5 4 5 5 6 8 7 6 6 6 7 6 5 5 6 6 5 6 7 7 6 6 6
8 7 7 6 5 4 6 4 4 5 5 5 4 3 1 0 4 2 0 3 4 3 1 0 0 0 2 4 1 1 2 2 2 2 1 1 2 2 4 4 4 5 5 6 6 5 6 6 7 7 6 6 6 5 5 6 8 8 7 6 5 5 5 5 5 5 6 7 6 7 6 6 6 5
6 6 6 5 5 5 5 5 4 5 5 4 4 5 3 2 3 1 1 4 2 1 1 0 1 1 2 0 2 3 2 1 1 1 3 2 2 2 2 3 5 5 4 5 6 6 6 7 6 7 7 6 6 8 4 5 6 4 6 5 4 4 5 5 4 5 5 6 6 5 6 7 6 7
7 5 6 5 6 6 5 5 4 5 6 5 4 6 5 4 4 3 4 3 3 2 3 1 3 3 1 3 3 1 1 2 1 2 2 2 2 2 3 4 3 4 5 5 5 6 6 7 7 6 7 7 7 8 8 2 5 7 4 5 6 6 7 6 6 6 6 5 5 4 5 6 7 7
6 5 5 6 6 6 5 4 5 5 4 4 2 2 2 3 5 5 4 3 3 3 1 0 1 0 2 0 1 0 0 0 0 1 2 2 2 2 2 3 4 4 5 6 6 6 5 6 6 6 5 6 7 7 9 6 6 6 5 7 8 9 6 5 6 6 5 3 4 5 5 7 7 6
8 8 7 6 6 7 5 5 5 5 4 4 3 3 2 1 4 4 5 4 6 2 1 1 4 2 2 3 1 1 0 0 0 1 1 1 1 2 3 3 5 5 5 6 6 6 5 5 6 5 4 5 6 7 7 9 9 9 10 12 7 7 6 4 5 4 4 5 6 6 6 6 9 12
7 6 6 5 6 6 6 6 5 5 4 5 4 3 3 3 4 4 5 5 2 0 2 4 2 2 3 0 1 1 1 0 0 1 1 2 3 3 3 4 4 5 5 6 6 6 6 6 5 5 6 6 7 7 7 7 7 8 9 8 6 4 4 2 3 3 4 4 6 7 8 7 5 4
3 5 6 6 6 5 7 7 6 4 6 4 4 6 4 4 5 5 4 4 1 1 1 1 3 2 1 3 2 1 0 0 1 4 4 4 4 4 5 5 5 4 5 6 6 6 7 6 7 9 8 6 6 4 4 4 5 5 6 4 6 7 7 5 2 2 2 3 5 6 7 7 6 5
2 4 5 5 5 7 7 7 6 5 4 4 4 3 4 5 5 6 4 4 3 0 1 2 3 5 6 5 5 5 6 6 5 3 4 3 4 4 4 3 5 5 5 6 7 7 8 7 7 6 6 4 4 3 4 5 6 6 5 5 2 4 6 9 9 7 4 3 4 5 5 4 3 4
4 4 6 4 6 7 6 6 6 7 4 6 5 4 2 3 5 3 3 5 3 1 1 3 3 5 6 4 3 2 2 3 4 3 2 3 3 4 4 4 4 5 5 6 6 6 6 6 5 5 5 4 4 3 5 5 5 6 6 4 1 2 2 4 7 8 8 9 7 4 4 5 5 5
7 5 5 6 6 7 6 8 7 5 6 5 4 1 2 2 4 1 3 4 5 3 2 3 5 5 3 3 3 2 3 2 0 1 2 3 3 3 4 5 5 5 5 4 5 6 6 5 5 5 5 5 4 3 5 6 6 5 4 3 1 2 2 3 3 1 0 6 10 10 8 3 1 3
5 5 6 6 6 6 6 5 5 5 6 5 4 2 4 5 3 2 5 5 3 3 3 4 4 3 3 4 4 2 1 3 4 5 4 4 4 4 5 4 4 4 5 4 5 6 6 6 5 4 4 4 3 4 5 6 7 6 3 2 2 2 2 1 2 3 3 3 6 9 7 5 4 4
Wind_Direction
101 106 106 103 81 53 46 40 31 36 33 49 57 88 108 95 131 139 117 124 123 83 120 128 102 116 130 131 130 120 106 142 183 196 157 135 134 147 141 134 126 117 107 93 75 47 29 23 19 20 19 17 17 14 8 10 15 14 16 17 17 10 13 12 356 356 354 355 353 351 349 343 342 342
61 72 69 62 65 60 52 48 41 51 45 39 49 42 70 67 65 161 120 91 64 107 47 87 131 118 120 143 128 115 90 49 346 87 145 139 149 160 159 156 155 143 128 112 92 71 39 16 5 4 5 5 357 1 359 358 4 6 12 11 9 7 9 11 2 354 350 347 345 342 341 338 335 333
93 92 91 86 91 94 88 58 39 29 7 53 55 57 46 33 42 100 113 101 9 64 86 55 50 84 122 105 88 94 108 141 121 293 134 149 154 164 164 167 176 180 176 155 133 107 74 16 338 329 334 339 337 344 350 349 358 1 4 5 7 4 3 2 359 352 351 346 341 337 334 332 332 332
110 115 118 131 135 117 87 85 78 54 46 48 63 54 55 44 61 65 73 95 72 21 101 103 118 106 106 156 149 142 148 173 187 228 176 156 158 169 164 183 187 194 205 199 156 144 126 359 329 323 314 312 311 326 329 339 346 349 353 359 7 4 7 8 4 355 351 348 345 344 339 336 334 331
98 93 97 88 84 96 115 104 81 75 75 63 72 84 63 45 55 105 115 109 109 81 69 114 78 50 3 326 91 96 100 161 202 241 167 165 181 174 174 180 197 197 215 230 203 170 169 175 305 310 305 304 304 310 319 322 331 331 343 357 9 17 16 10 6 357 354 350 348 346 343 339 335 332
104 102 81 63 42 44 60 9 143 150 143 163 132 61 56 43 34 31 87 116 121 131 224 107 124 119 152 327 135 122 154 225 269 279 197 185 220 175 174 174 181 202 213 227 228 198 186 195 226 270 281 280 294 297 297 303 310 321 333 351 26 29 22 15 11 4 358 353 351 347 344 340 336 330
81 80 78 67 49 41 61 20 35 50 27 58 69 68 52 50 29 45 72 114 134 150 182 157 149 111 127 173 143 160 181 198 49 313 358 271 238 143 168 144 183 191 213 217 229 218 205 213 233 249 261 268 267 272 277 282 290 304 325 2 37 33 24 14 4 2 357 352 349 347 344 341 335 331
94 94 88 75 63 53 36 27 33 41 95 78 86 100 115 103 82 11 32 92 156 161 151 206 124 171 185 211 215 165 108 146 189 226 244 262 40 22 16 357 118 196 205 211 223 228 224 226 234 245 255 261 262 258 253 254 262 266 298 353 58 36 9 351 346 346 349 347 344 340 341 339 335 334
111 113 110 117 90 74 58 22 14 19 26 0 122 131 123 111 128 81 34 357 30 45 114 142 140 165 77 171 314 54 135 177 83 282 15 57 39 28 4 2 351 166 200 210 227 239 239 237 240 247 253 257 261 258 249 246 240 238 242 249 242 320 322 345 353 351 347 343 339 335 335 333 331 334
108 130 120 118 104 86 102 315 41 23 48 360 33 19 71 101 67 86 86 69 58 74 14 126 141 108 130 343 340 322 136 163 147 29 44 24 37 24 2 342 333 335 202 205 234 250 256 257 251 255 256 255 255 256 246 242 239 226 219 217 210 235 276 312 329 334 340 337 333 330 328 327 329 332
107 128 121 118 121 114 108 87 66 42 42 30 54 10 49 59 116 108 160 222 154 135 120 303 155 153 173 133 193 269 57 95 78 92 36 27 5 27 4 326 319 299 308 313 268 223 224 262 280 262 264 262 255 250 242 237 237 215 206 197 202 215 234 249 264 283 306 322 325 320 316 318 321 324
133 137 107 119 126 139 128 103 96 80 47 52 0 3 49 43 92 60 18 97 11 47 256 272 106 154 145 195 285 16 45 8 24 62 101 3 11 348 347 320 315 301 321 330 343 324 321 315 303 305 301 289 271 256 237 236 237 212 198 198 205 218 222 228 241 246 250 275 296 302 306 311 315 318
139 170 101 67 60 76 104 89 84 69 59 39 17 352 333 65 71 354 6 358 68 315 321 305 300 358 135 123 154 119 41 62 8 13 50 37 8 356 330 315 301 309 346 344 350 335 350 337 321 313 304 296 298 265 230 240 240 206 196 195 206 215 220 225 230 235 247 264 270 279 289 298 306 310
158 96 108 142 109 72 78 105 96 87 77 70 82 52 349 319 83 56 1 348 338 5 339 338 15 25 358 52 114 103 61 53 45 43 32 13 340 340 316 304 300 357 16 356 332 321 327 320 308 297 296 307 314 263 206 227 220 199 194 200 207 215 220 227 236 252 281 276 274 274 280 287 292 296
102 110 97 106 109 103 109 95 109 104 97 85 71 56 60 32 63 48 24 327 332 343 336 269 28 47 30 28 26 40 53 42 36 33 21 356 345 332 331 313 315 11 27 345 327 309 310 308 296 303 313 309 295 315 359 196 206 194 193 200 209 218 223 228 238 255 264 269 271 271 271 273 275 277
115 119 113 90 165 143 141 134 106 106 107 103 97 84 70 68 63 75 99 55 33 25 356 356 28 42 23 75 55 38 47 16 15 17 13 357 354 345 341 318 305 309 8 332 310 298 300 293 296 298 288 281 313 324 330 202 194 195 193 202 213 221 222 235 265 256 252 257 259 262 264 267 270 274
112 79 55 68 284 163 137 139 158 154 121 97 103 102 87 59 76 92 80 86 103 356 359 5 34 83 35 60 66 53 41 34 25 8 7 3 356 348 321 298 303 311 313 306 289 283 289 296 282 273 266 284 296 304 328 349 219 203 204 214 222 223 227 242 249 253 250 246 255 261 266 271 274 278
122 106 230 179 175 190 180 184 172 154 149 149 127 124 122 115 62 75 119 115 105 132 99 13 13 65 55 82 81 57 41 43 27 20 346 351 334 315 285 289 291 284 288 277 279 283 278 259 259 275 285 302 325 336 337 335 334 254 228 231 235 233 229 238 243 245 245 245 253 261 268 274 277 279
160 190 213 201 187 186 183 182 184 171 160 156 152 146 157 147 173 133 35 28 25 37 37 49 60 52 50 59 56 41 42 44 33 30 342 323 292 285 281 281 266 268 261 258 247 266 284 314 333 303 311 337 333 334 330 341 327 310 292 270 250 235 238 242 246 249 247 252 256 262 269 276 281 283
173 196 195 197 188 174 177 189 194 186 145 146 147 153 175 148 97 73 12 325 70 76 75 67 74 79 89 84 81 74 54 36 35 12 359 337 308 299 298 293 312 310 302 314 325 312 314 318 304 307 323 347 329 332 334 302 298 302 312 282 238 242 250 259 265 271 260 255 260 265 272 276 281 285
286 194 183 184 176 174 174 189 198 182 149 159 161 162 166 138 122 120 153 123 87 95 95 102 104 111 102 97 110 108 90 90 77 20 356 321 356 348 319 307 310 301 345 331 324 317 313 327 335 322 329 344 329 314 307 329 347 350 339 321 294 281 285 290 287 280 267 264 267 269 269 275 281 296
188 294 93 170 180 174 167 167 165 163 154 162 168 173 158 142 136 143 153 140 81 80 86 84 98 109 123 128 139 133 131 135 133 138 207 283 353 300 289 292 311 317 308 330 359 359 323 341 337 326 314 319 298 339 347 353 352 356 356 349 340 326 312 298 289 286 281 277 277 276 274 277 295 311
149 68 12 265 175 136 149 149 138 142 148 151 185 164 157 153 158 175 164 151 128 140 147 154 144 175 187 198 209 204 186 193 200 210 210 234 216 258 276 281 289 300 294 39 14 11 336 352 340 338 331 316 328 337 347 346 344 351 349 338 333 322 325 335 335 310 291 283 281 279 281 287 308 284
147 114 93 44 105 123 117 107 100 91 89 76 229 171 173 179 176 146 147 141 157 168 189 173 181 210 192 199 209 221 214 216 189 199 235 241 238 250 270 283 297 281 294 61 21 11 325 351 325 341 327 325 323 349 337 336 351 346 338 322 318 331 335 333 336 337 328 312 297 289 289 289 277 287
143 127 111 107 117 118 110 99 89 82 70 66 67 89 89 86 94 112 107 103 99 120 131 232 217 241 232 187 204 233 217 201 186 199 226 251 308 345 354 359 355 327 325 339 8 1 335 343 319 344 330 328 317 325 344 336 331 322 315 331 331 325 328 330 335 331 333 339 345 347 344 338 338 337
153 144 146 133 133 108 98 95 90 87 86 83 83 87 99 78 64 77 112 119 154 191 191 208 208 214 225 300 235 229 141 158 185 193 203 167 26 32 29 344 328 317 314 329 352 339 335 329 338 331 323 327 320 326 318 317 305 311 331 321 313 319 332 331 326 324 334 341 337 338 337 338 333 334
134 104 114 128 126 110 105 100 101 99 95 85 91 86 72 67 62 29 166 118 132 71 11 40 24 6 329 289 306 32 33 65 81 84 76 25 348 336 296 286 269 270 286 315 329 323 320 296 318 309 305 304 300 306 298 308 311 317 305 310 318 317 316 313 319 327 327 323 323 330 330 326 328 335
120 122 125 129 115 104 99 94 91 91 93 107 103 87 87 87 116 232 129 145 172 162 87 59 327 269 264 44 15 21 57 36 18 316 281 251 228 227 228 261 298 306 311 303 298 288 280 275 275 264 273 286 290 295 298 288 287 302 308 312 310 312 313 322 319 309 299 305 315 316 321 318 322 327
115 115 118 116 106 103 101 101 95 88 88 89 85 77 69 49 250 192 232 138 82 66 98 219 218 65 51 63 51 58 51 4 333 307 288 248 230 52 357 328 304 299 309 299 285 276 271 261 265 266 264 263 273 283 287 296 304 302 309 314 311 319 319 307 297 301 312 310 310 319 311 313 305 306
115 116 113 108 108 107 110 101 96 95 95 82 73 77 59 274 252 235 100 59 100 157 339 45 47 36 32 35 31 359 312 279 278 332 359 16 356 9 355 352 333 328 313 297 290 296 299 297 290 289 291 287 286 293 294 302 299 300 305 300 299 301 288 300 303 300 303 322 330 326 314 302 295 297
106 110 111 115 105 98 92 93 95 102 106 104 116 163 194 238 350 57 61 60 39 22 2 25 46 32 25 16 360 308 17 356 326 14 21 22 1 6 345 341 321 316 305 300 299 297 296 296 296 299 296 293 287 278 287 289 291 295 294 296 302 295 302 296 293 312 332 330 328 318 316 311 312 312
114 111 109 106 111 109 104 102 111 123 150 153 164 193 209 148 108 106 87 68 55 269 81 60 48 31 19 333 317 352 301 290 32 35 28 22 352 345 348 327 302 301 292 288 289 295 307 314 315 305 286 285 289 293 288 281 281 285 290 290 289 287 290 301 318 322 323 325 318 313 317 317 316 316
114 116 116 123 124 130 128 136 138 152 173 195 209 200 177 128 119 120 114 166 212 80 59 63 61 6 343 327 336 329 14 28 20 29 22 351 341 319 308 297 307 314 323 328 331 328 329 317 302 292 290 286 279 283 289 288 277 275 281 285 287 287 290 300 312 312 323 316 308 314 310 310 308 307
127 129 127 133 139 144 139 154 158 162 178 186 147 72 37 19 66 104 143 120 97 98 93 84 66 110 47 317 273 303 39 27 25 19 13 316 321 330 327 322 315 328 335 325 320 310 304 299 296 294 288 284 274 267 268 278 287 290 283 284 285 290 300 309 311 316 317 312 313 309 304 300 300 293
120 132 134 142 139 150 150 163 170 163 150 141 119 119 103 351 106 97 43 78 74 72 70 102 132 142 225 239 258 61 48 43 7 326 309 1 354 334 323 315 321 318 304 298 293 299 309 314 320 314 307 300 299 280 249 262 286 285 289 288 292 301 307 309 313 318 324 316 314 303 301 296 299 300
132 132 138 148 152 157 156 185 182 155 144 153 149 140 151 187 121 134 91 94 96 102 164 109 33 286 254 235 47 54 31 37 343 15 6 347 325 298 300 290 292 294 302 307 316 322 325 318 318 313 310 310 306 303 301 240 243 288 301 299 305 302 299 301 306 307 307 303 296 295 297 305 307 307
142 144 145 151 159 163 170 182 164 144 137 152 146 151 181 169 156 138 131 160 159 172 123 127 245 244 278 61 46 18 14 52 31 12 322 284 283 282 288 300 304 316 316 315 320 317 318 313 312 307 308 308 306 302 297 324 345 347 332 315 297 290 291 300 304 296 274 268 284 297 302 301 299 298
148 146 152 159 168 169 183 157 128 121 123 119 107 111 92 125 150 131 153 114 89 69 57 130 278 275 93 104 195 195 105 101 68 265 269 285 317 345 345 328 315 314 310 308 309 304 307 300 300 301 306 305 307 308 312 319 307 288 280 288 289 287 291 289 289 285 295 300 314 315 312 296 291 296
152 161 162 170 171 169 160 135 127 127 127 125 127 116 150 122 96 100 92 87 78 59 348 314 275 241 213 216 176 133 121 199 247 287 316 342 20 356 339 322 304 305 307 303 304 300 299 294 294 303 312 314 305 305 305 305 303 302 300 284 265 275 278 265 277 314 333 331 322 311 284 275 282 284
160 160 170 164 156 145 126 118 114 119 119 117 136 164 140 96 108 103 93 94 98 209 210 233 263 344 317 93 90 77 62 85 120 274 15 34 19 2 331 319 309 305 306 301 304 304 302 299 300 305 305 286 279 272 273 273 280 285 279 310 355 236 266 323 358 347 322 348 325 315 312 314 314 309
193 158 167 147 153 134 120 120 123 124 116 126 92 66 88 103 88 83 94 98 108 261 22 308 275 271 332 26 14 31 40 126 48 55 48 29 12 343 319 312 302 300 300 298 296 298 296 297 292 286 279 276 271 282 284 277 286 298 309 312 12 45 74 72 85 51 3 332 320 308 303 307 305 319
217 157 157 162 148 122 120 119 125 118 134 122 110 111 81 93 110 134 137 168 198 82 270 290 9 31 29 22 23 17 16 39 54 45 36 0 298 286 284 286 294 298 295 295 298 292 288 290 289 286 280 280 289 285 274 283 291 298 296 308 330 23 72 84 85 95 92 19 340 323 317 300 333 313
280 170 168 163 124 124 126 126 118 116 102 95 102 101 146 158 138 193 177 188 205 177 48 19 29 44 37 17 355 355 36 52 47 15 304 275 270 278 287 289 282 286 286 284 283 282 289 291 293 294 288 277 260 233 271 275 278 280 288 304 311 116 37 99 129 120 90 57 30 341 294 295 315 319
263 163 142 115 116 115 109 99 105 105 106 101 109 189 236 126 124 136 74 100 91 74 45 47 48 41 26 332 304 314 65 74 30 291 348 344 319 304 299 297 292 288 287 287 294 298 296 296 295 292 296 288 274 271 273 279 279 270 271 292 344 91 160 212 218 228 106 50 22 6 5 15 257 252
223 127 106 98 96 95 101 106 106 108 105 123 143 114 68 57 55 80 84 76 70 53 59 69 53 32 355 325 321 326 61 61 43 42 14 318 299 296 291 286 290 298 300 299 304 305 308 308 303 289 273 278 270 266 272 258 266 277 304 8 2 45 90 28 31 48 24 348 8 5 2 11 32 38